Tracking 29768 objects as of 3-Oct-2024
HD Live streaming from Space Station
objects crossing your sky now

DTUSAT-2

Track DTUSAT-2 now!
10-day predictions
DTUSAT-2 is classified as:


NORAD ID: 40030
Int'l Code: 2014-033W
Perigee: 563.2 km
Apogee: 578.1 km
Inclination: 98.0 °
Period: 95.9 minutes
Semi major axis: 6941 km
RCS: Unknown
Launch date: June 19, 2014
Source: Denmark (DEN)
Launch site: Orenburg, Russia (OREN)

Uplink (MHz): 1268.900
Downlink (MHz): 2401.835
Beacon (MHz): 2401.860*
Mode: 9k6CPFSK/1k2 19k2 38k4MSK CW*
Call sign: OZ2DTU
Status: Inactive

Your satellite tracking list
Your tracking list is empty




NASA's NSSDC Master Catalog

Two Line Element Set (TLE):
1 40030U 14033W   24276.84843531  .00026675  00000-0  20797-2 0  9998
2 40030  98.0180 232.3934 0010711 163.1582 196.9999 15.01107473558837
Source of the keplerian elements: AMSAT